Change the Weather History Date:

Thursday, May 3, 2012

  Actual Average Record
Temperature  
Mean Temperature 68 °F -  
Max Temperature 78 °F 75 °F 90 °F (1954)
Min Temperature 59 °F 52 °F 44 °F (1960)
Cooling Degree Days 4    
Growing Degree Days 18 (Base 50)    
Moisture  
Dew Point 59 °F    
Average Humidity 81    
Maximum Humidity 93    
Minimum Humidity 62    
Precipitation  
Precipitation 0.00 in - - ()
Sea Level Pressure  
Sea Level Pressure 30.10 in    
Wind  
Wind Speed 5 mph (East)    
Max Wind Speed 9 mph    
Max Gust Speed -    
Visibility 10 miles    
Events      
Averages and records for this station are not official NWS values.
T = Trace of Precipitation, MM = Missing Value Source: NWS Daily Summary

Daily Weather History Graph

Daily Weather History Graph

Search for Another Location

Airport or City:

Trip Planner

Search our weather history database for the weather conditions in past years. The results will help you decide how hot, cold, wet, or windy it might be!

Date:

Astronomy

May. 03, 2012 Rise Set
Actual Time 6:08 AM EDT 7:57 PM EDT
Civil Twilight 5:40 AM EDT 8:25 PM EDT
Nautical Twilight 5:06 AM EDT 8:59 PM EDT
Astronomical Twilight 4:30 AM EDT 9:36 PM EDT
Moon 5:21 PM EDT (5/3) 4:07 AM EDT (5/3)
Length of Visible Light 14h 45m
Length of Day
13h 48m
Waxing Gibbous, 91% of the Moon is Illuminated
May 3
Waxing Gibbous
May 5
Full
May 12
Last Quarter
May 20
New
May 28
First Quarter

Hourly Weather History & Observations

Time (EDT) Temp. Dew Point Humidity Pressure Visibility Wind Dir Wind Speed Gust Speed Precip Events Conditions
12:54 AM 59.0 °F 55.9 °F 90% 30.12 in 10.0 mi ESE 6.9 mph - N/A   Overcast
1:54 AM 59.0 °F 55.9 °F 90% 30.11 in 10.0 mi East 5.8 mph - N/A   Overcast
2:02 AM 59.0 °F 55.4 °F 88% 30.11 in 10.0 mi East 5.8 mph - N/A   Overcast
2:54 AM 59.0 °F 55.9 °F 90% 30.09 in 10.0 mi East 3.5 mph - N/A   Overcast
3:54 AM 59.0 °F 55.9 °F 90% 30.09 in 10.0 mi East 5.8 mph - N/A   Overcast
4:54 AM 60.1 °F 57.0 °F 90% 30.08 in 10.0 mi ENE 6.9 mph - N/A   Overcast
5:54 AM 59.0 °F 57.0 °F 93% 30.09 in 10.0 mi ESE 4.6 mph - N/A   Overcast
6:54 AM 59.0 °F 55.9 °F 90% 30.14 in 10.0 mi NE 9.2 mph - N/A   Overcast
7:54 AM 60.1 °F 57.0 °F 90% 30.16 in 9.0 mi ENE 8.1 mph - N/A   Overcast
8:54 AM 60.1 °F 57.0 °F 90% 30.17 in 6.0 mi ENE 8.1 mph - N/A   Overcast
9:54 AM 61.0 °F 57.0 °F 87% 30.15 in 10.0 mi ESE 3.5 mph - N/A   Overcast
10:54 AM 64.0 °F 57.9 °F 80% 30.14 in 10.0 mi Calm Calm - N/A   Overcast
11:08 AM 66.2 °F 59.0 °F 78% 30.14 in 10.0 mi Variable 3.5 mph - N/A   Overcast
11:54 AM 68.0 °F 59.0 °F 73% 30.15 in 10.0 mi Calm Calm - N/A   Overcast
12:19 PM 69.8 °F 60.8 °F 73% 30.14 in 10.0 mi WSW 4.6 mph - N/A   Partly Cloudy
12:54 PM 71.1 °F 61.0 °F 70% 30.12 in 10.0 mi Calm Calm - N/A   Clear
1:54 PM 75.0 °F 63.0 °F 66% 30.12 in 10.0 mi West 4.6 mph - N/A   Clear
2:54 PM 78.1 °F 64.0 °F 62% 30.10 in 10.0 mi ENE 9.2 mph - N/A   Clear
3:54 PM 78.1 °F 64.0 °F 62% 30.08 in 10.0 mi ENE 4.6 mph - N/A   Clear
4:54 PM 75.9 °F 64.0 °F 67% 30.06 in 10.0 mi East 6.9 mph - N/A   Clear
5:54 PM 77.0 °F 64.0 °F 64% 30.05 in 10.0 mi ESE 5.8 mph - N/A   Clear
6:54 PM 73.9 °F 63.0 °F 68% 30.05 in 10.0 mi ENE 6.9 mph - N/A   Clear
7:54 PM 68.0 °F 62.1 °F 81% 30.05 in 10.0 mi East 4.6 mph - N/A   Clear
8:54 PM 66.0 °F 61.0 °F 84% 30.06 in 10.0 mi East 3.5 mph - N/A   Clear
9:54 PM 64.0 °F 60.1 °F 87% 30.07 in 10.0 mi East 4.6 mph - N/A   Clear
10:54 PM 64.0 °F 60.1 °F 87% 30.08 in 10.0 mi ESE 3.5 mph - N/A   Clear
11:54 PM 64.0 °F 60.1 °F 87% 30.06 in 10.0 mi Calm Calm - N/A   Clear